• în România
  • Lista ţărilor
  • Pe 7 zile
  • Temperatura apei
  • Hartă satelitară
  • Meteo pe hartă
  • Widget-uri
  • user-avatar
    Intrare

    Meteo pe oră la Ganja

    Astăzi, 19 Octombrie, Vineri

    Timp Temperatura Precipitaţii Vânt Presiune Umiditate
    00:00 +16°C° 0 mm 2 m/s 729 mmHg 81%
    01:00 +16°C° 0 mm 1 m/s 729 mmHg 84%
    02:00 +15°C° 0 mm 1 m/s 729 mmHg 86%
    03:00 +15°C° 0 mm 1 m/s 729 mmHg 88%
    04:00 +15°C° 0 mm 1 m/s 729 mmHg 89%
    05:00 +15°C° 0 mm 1 m/s 729 mmHg 89%
    06:00 +14°C° 0 mm 0 m/s 730 mmHg 90%
    07:00 +16°C° 0 mm 1 m/s 730 mmHg 85%
    08:00 +18°C° 0 mm 1 m/s 730 mmHg 80%
    09:00 +19°C° 0 mm 1 m/s 730 mmHg 75%
    10:00 +20°C° 0 mm 1 m/s 729 mmHg 71%
    11:00 +21°C° 0 mm 1 m/s 729 mmHg 66%
    12:00 +21°C° 0 mm 2 m/s 729 mmHg 62%
    13:00 +21°C° 0 mm 2 m/s 728 mmHg 60%
    14:00 +23°C° 0 mm 2 m/s 728 mmHg 59%
    15:00 +23°C° 0 mm 2 m/s 728 mmHg 57%
    16:00 +21°C° 0 mm 2 m/s 728 mmHg 62%
    17:00 +20°C° 0 mm 2 m/s 728 mmHg 67%
    18:00 +19°C° 0 mm 2 m/s 728 mmHg 72%
    19:00 +18°C° 0 mm 2 m/s 728 mmHg 74%
    20:00 +19°C° 0 mm 1 m/s 728 mmHg 76%
    21:00 +18°C° 0 mm 1 m/s 728 mmHg 78%
    22:00 +18°C° 0 mm 1 m/s 728 mmHg 80%
    23:00 +16°C° 0 mm 1 m/s 728 mmHg 81%

    Mâine, 20 Octombrie, Sâmbătă

    Timp Temperatura Precipitaţii Vânt Presiune Umiditate
    00:00 +16°C° 0 mm 1 m/s 728 mmHg 83%
    01:00 +16°C° 0 mm 1 m/s 728 mmHg 83%
    02:00 +15°C° 0 mm 1 m/s 728 mmHg 84%
    03:00 +14°C° 0 mm 0 m/s 728 mmHg 85%
    04:00 +15°C° 0 mm 1 m/s 728 mmHg 84%
    05:00 +15°C° 0 mm 1 m/s 728 mmHg 83%
    06:00 +15°C° 0 mm 1 m/s 727 mmHg 83%
    07:00 +16°C° 0 mm 1 m/s 727 mmHg 77%
    08:00 +19°C° 0 mm 1 m/s 727 mmHg 71%
    09:00 +20°C° 0 mm 1 m/s 727 mmHg 65%
    10:00 +21°C° 0 mm 1 m/s 727 mmHg 60%
    11:00 +22°C° 0 mm 1 m/s 727 mmHg 55%
    12:00 +23°C° 0 mm 2 m/s 726 mmHg 51%
    13:00 +24°C° 0 mm 1 m/s 726 mmHg 50%
    14:00 +24°C° 0 mm 1 m/s 726 mmHg 48%
    15:00 +24°C° 0 mm 1 m/s 725 mmHg 47%
    16:00 +23°C° 0 mm 1 m/s 725 mmHg 52%
    17:00 +22°C° 0 mm 1 m/s 725 mmHg 56%
    18:00 +21°C° 0 mm 1 m/s 725 mmHg 61%
    19:00 +20°C° 0 mm 1 m/s 726 mmHg 62%
    20:00 +20°C° 0 mm 1 m/s 726 mmHg 62%
    21:00 +20°C° 0 mm 1 m/s 726 mmHg 63%
    22:00 +19°C° 0 mm 1 m/s 726 mmHg 64%
    23:00 +19°C° 0 mm 1 m/s 726 mmHg 65%

    Poimâine, 21 Octombrie, Duminică

    Timp Temperatura Precipitaţii Vânt Presiune Umiditate
    00:00 +18°C° 0 mm 1 m/s 725 mmHg 66%
    01:00 +18°C° 0 mm 1 m/s 725 mmHg 66%
    02:00 +18°C° 0 mm 1 m/s 725 mmHg 66%
    03:00 +16°C° 0 mm 1 m/s 725 mmHg 66%
    04:00 +16°C° 0 mm 1 m/s 725 mmHg 66%
    05:00 +16°C° 0 mm 1 m/s 725 mmHg 65%
    06:00 +16°C° 0 mm 1 m/s 725 mmHg 64%
    07:00 +19°C° 0 mm 1 m/s 725 mmHg 58%
    08:00 +20°C° 0 mm 1 m/s 725 mmHg 53%
    09:00 +22°C° 0 mm 1 m/s 725 mmHg 47%
    10:00 +23°C° 0 mm 1 m/s 725 mmHg 43%
    11:00 +24°C° 0 mm 1 m/s 725 mmHg 40%
    12:00 +25°C° 0 mm 2 m/s 724 mmHg 36%
    13:00 +25°C° 0 mm 1 m/s 724 mmHg 35%
    14:00 +25°C° 0 mm 1 m/s 724 mmHg 35%
    15:00 +25°C° 0 mm 1 m/s 724 mmHg 35%
    16:00 +24°C° 0 mm 1 m/s 724 mmHg 39%
    17:00 +23°C° 0 mm 1 m/s 724 mmHg 43%
    18:00 +21°C° 0 mm 1 m/s 724 mmHg 47%
    19:00 +21°C° 0 mm 1 m/s 724 mmHg 48%
    20:00 +18°C° 0 mm 0 m/s 724 mmHg 49%
    21:00 +18°C° 0 mm 0 m/s 724 mmHg 50%
    22:00 +18°C° 0 mm 0 m/s 724 mmHg 51%
    23:00 +17°C° 0 mm 0 m/s 724 mmHg 51%

    22 Octombrie, Luni

    Timp Temperatura Precipitaţii Vânt Presiune Umiditate
    00:00 +17°C° 0 mm 0 m/s 724 mmHg 52%
    01:00 +17°C° 0 mm 0 m/s 724 mmHg 52%
    02:00 +19°C° 0 mm 1 m/s 724 mmHg 51%
    03:00 +19°C° 0 mm 1 m/s 724 mmHg 51%
    04:00 +19°C° 0 mm 1 m/s 724 mmHg 51%
    05:00 +18°C° 0 mm 1 m/s 724 mmHg 51%
    06:00 +17°C° 0 mm 2 m/s 724 mmHg 51%
    07:00 +19°C° 0 mm 2 m/s 724 mmHg 47%
    08:00 +20°C° 0 mm 2 m/s 724 mmHg 43%
    09:00 +21°C° 0 mm 2 m/s 724 mmHg 39%
    10:00 +23°C° 0 mm 2 m/s 724 mmHg 36%
    11:00 +24°C° 0 mm 2 m/s 724 mmHg 34%
    12:00 +25°C° 0 mm 2 m/s 724 mmHg 32%
    13:00 +25°C° 0 mm 2 m/s 724 mmHg 32%
    14:00 +26°C° 0 mm 2 m/s 723 mmHg 31%
    15:00 +26°C° 0 mm 2 m/s 723 mmHg 31%
    16:00 +25°C° 0 mm 2 m/s 723 mmHg 34%
    17:00 +23°C° 0 mm 2 m/s 723 mmHg 38%
    18:00 +22°C° 0 mm 1 m/s 724 mmHg 41%
    19:00 +20°C° 0 mm 2 m/s 724 mmHg 42%
    20:00 +20°C° 0 mm 2 m/s 724 mmHg 43%
    21:00 +20°C° 0 mm 2 m/s 725 mmHg 44%
    22:00 +19°C° 0 mm 2 m/s 725 mmHg 45%
    23:00 +19°C° 0 mm 2 m/s 725 mmHg 45%

    23 Octombrie, Marţi

    Timp Temperatura Precipitaţii Vânt Presiune Umiditate
    00:00 +19°C° 0 mm 2 m/s 725 mmHg 46%
    01:00 +18°C° 0 mm 2 m/s 725 mmHg 47%
    02:00 +18°C° 0 mm 2 m/s 725 mmHg 47%
    03:00 +18°C° 0 mm 2 m/s 725 mmHg 48%
    04:00 +18°C° 0 mm 2 m/s 725 mmHg 48%
    05:00 +17°C° 0 mm 2 m/s 725 mmHg 49%
    06:00 +17°C° 0 mm 2 m/s 725 mmHg 49%
    07:00 +19°C° 0 mm 2 m/s 725 mmHg 45%
    08:00 +20°C° 0 mm 2 m/s 726 mmHg 41%
    09:00 +23°C° 0 mm 1 m/s 726 mmHg 36%
    10:00 +24°C° 0 mm 2 m/s 725 mmHg 35%
    11:00 +25°C° 0 mm 2 m/s 725 mmHg 33%
    12:00 +26°C° 0 mm 2 m/s 725 mmHg 31%
    13:00 +26°C° 0 mm 2 m/s 725 mmHg 30%
    14:00 +26°C° 0 mm 2 m/s 724 mmHg 30%
    15:00 +26°C° 0 mm 2 m/s 724 mmHg 30%
    16:00 +25°C° 0 mm 2 m/s 724 mmHg 33%
    17:00 +24°C° 0 mm 1 m/s 725 mmHg 36%
    18:00 +22°C° 0 mm 1 m/s 725 mmHg 39%
    19:00 +22°C° 0 mm 1 m/s 725 mmHg 40%
    20:00 +22°C° 0 mm 1 m/s 725 mmHg 40%
    21:00 +21°C° 0 mm 2 m/s 725 mmHg 40%
    22:00 +20°C° 0 mm 2 m/s 725 mmHg 42%
    23:00 +20°C° 0 mm 2 m/s 725 mmHg 43%

    24 Octombrie, Miercuri

    Timp Temperatura Precipitaţii Vânt Presiune Umiditate
    00:00 +19°C° 0 mm 2 m/s 725 mmHg 44%
    01:00 +19°C° 0 mm 2 m/s 724 mmHg 46%
    02:00 +18°C° 0 mm 2 m/s 724 mmHg 47%
    03:00 +18°C° 0 mm 2 m/s 724 mmHg 49%
    04:00 +18°C° 0 mm 3 m/s 724 mmHg 50%
    05:00 +18°C° 0 mm 3 m/s 724 mmHg 51%
    06:00 +17°C° 0 mm 3 m/s 724 mmHg 52%
    07:00 +19°C° 0 mm 3 m/s 724 mmHg 48%
    08:00 +21°C° 0 mm 3 m/s 724 mmHg 43%
    09:00 +22°C° 0 mm 3 m/s 724 mmHg 39%
    10:00 +24°C° 0 mm 3 m/s 723 mmHg 36%
    11:00 +26°C° 0 mm 3 m/s 723 mmHg 34%
    12:00 +27°C° 0 mm 3 m/s 722 mmHg 31%
    13:00 +27°C° 0 mm 3 m/s 722 mmHg 31%
    14:00 +27°C° 0 mm 3 m/s 721 mmHg 30%
    15:00 +27°C° 0 mm 3 m/s 720 mmHg 30%
    16:00 +26°C° 0 mm 3 m/s 720 mmHg 33%
    17:00 +24°C° 0 mm 2 m/s 720 mmHg 36%
    18:00 +21°C° 0 mm 2 m/s 720 mmHg 40%
    19:00 +21°C° 0 mm 2 m/s 720 mmHg 40%
    20:00 +21°C° 0 mm 2 m/s 720 mmHg 41%
    21:00 +21°C° 0 mm 2 m/s 720 mmHg 42%
    22:00 +20°C° 0 mm 2 m/s 720 mmHg 43%
    23:00 +20°C° 0 mm 2 m/s 720 mmHg 44%
    Arată mai mult